sat.trackr.live / text

‹ back to catalog

SWOT

NORAD 54754 · 2022-173A

PAYLOAD ACTIVE UNKNOWN

§ Identity

Operator
Country
US
Launch date
2022-12-16
Launch site
AFWTR
Launch vehicle
Mass (kg)
RCS (m²)

Purposes: earth_obs

External: N2YO · Heavens-Above · Gunter

§ Orbital elements

Epoch: 2026-09-20T00:32:13.473024Z

Period
102.84 min
Inclination
77.6074°
Eccentricity
0.0000198
Mean motion
14.00171898 rev/d
Perigee alt
893.1 km
Apogee alt
893.3 km
Semi-major
7,271.3 km
B*
4.8786e-6
RAAN
267.2878°
Arg perigee
191.1172°
Mean anomaly
168.9975°
Rev number
19,242

§ Raw data

SWOT1 54754U 22173A   26263.02237816  .00000005  00000+0  48786-5 0  99902 54754  77.6074 267.2878 0000198 191.1172 168.9975 14.00171898192420

JSON: /api/v1/satellites/54754 · /tle

For live sub-satellite position, see the globe view (requires WebGL).

§ Visibility from observer

Set your observer location to see the next 7 days of passes ≥ 10°. The values pass through the URL so the page stays shareable.

No JS? Fill the form by hand. The geolocation button needs JavaScript.